EN

Hourly Weather Ovrahove

Today, 2 March, Tuesday

Time Temperature Precipitation Wind Pressure Humidity
00:00 -1°C° 0 mm 2 mps 761 mmHg 80%
01:00 -1°C° 0 mm 2 mps 761 mmHg 79%
02:00 -1°C° 0 mm 3 mps 761 mmHg 82%
03:00 -1°C° 0 mm 3 mps 761 mmHg 83%
04:00 -2°C° 0 mm 4 mps 760 mmHg 85%
05:00 -2°C° 0 mm 4 mps 760 mmHg 87%
06:00 -1°C° 0 mm 5 mps 760 mmHg 85%
07:00 -1°C° 0 mm 5 mps 759 mmHg 83%
08:00 -2°C° 0 mm 6 mps 759 mmHg 81%
09:00 -1°C° 0 mm 6 mps 758 mmHg 78%
10:00 +1°C° 0 mm 6 mps 758 mmHg 76%
11:00 +2°C° 0 mm 6 mps 757 mmHg 74%
12:00 +2°C° 0 mm 6 mps 757 mmHg 76%
13:00 +2°C° 0 mm 7 mps 756 mmHg 78%
14:00 +2°C° 0 mm 7 mps 756 mmHg 80%
15:00 0°C° 0 mm 7 mps 755 mmHg 81%
16:00 0°C° 0 mm 7 mps 755 mmHg 82%
17:00 -1°C° 0 mm 7 mps 754 mmHg 84%
18:00 -1°C° 0 mm 6 mps 754 mmHg 84%
19:00 -1°C° 0 mm 6 mps 754 mmHg 85%
20:00 -1°C° 0 mm 6 mps 754 mmHg 85%
21:00 -1°C° 0 mm 6 mps 754 mmHg 85%
22:00 -1°C° 0 mm 7 mps 754 mmHg 86%
23:00 -1°C° 0 mm 7 mps 755 mmHg 86%

Tomorrow, 3 March, Wednesday

Time Temperature Precipitation Wind Pressure Humidity
00:00 -1°C° 0 mm 7 mps 755 mmHg 87%
01:00 -2°C° 0 mm 6 mps 755 mmHg 88%
02:00 -2°C° 0 mm 6 mps 755 mmHg 89%
03:00 -2°C° 0 mm 6 mps 756 mmHg 89%
04:00 -3°C° 0 mm 6 mps 756 mmHg 89%
05:00 -3°C° 0 mm 6 mps 756 mmHg 89%
06:00 -3°C° 0 mm 6 mps 757 mmHg 88%
07:00 -2°C° 0 mm 6 mps 757 mmHg 86%
08:00 -2°C° 0 mm 6 mps 758 mmHg 84%
09:00 -1°C° 0 mm 6 mps 758 mmHg 79%
10:00 +1°C° 0 mm 5 mps 758 mmHg 74%
11:00 +1°C° 0 mm 5 mps 758 mmHg 70%
12:00 +2°C° 0 mm 5 mps 758 mmHg 67%
13:00 +2°C° 0 mm 5 mps 758 mmHg 65%
14:00 +3°C° 0 mm 5 mps 758 mmHg 62%
15:00 +3°C° 0 mm 4 mps 758 mmHg 64%
16:00 +3°C° 0 mm 4 mps 758 mmHg 65%
17:00 +3°C° 0 mm 3 mps 758 mmHg 66%
18:00 +2°C° 0 mm 3 mps 758 mmHg 71%
19:00 +1°C° 0 mm 3 mps 758 mmHg 75%
20:00 +2°C° 0 mm 2 mps 758 mmHg 79%
21:00 0°C° 0 mm 3 mps 758 mmHg 81%
22:00 0°C° 0 mm 3 mps 758 mmHg 82%
23:00 0°C° 0 mm 3 mps 757 mmHg 83%

Day after tomorrow, 4 March, Thursday

Time Temperature Precipitation Wind Pressure Humidity
00:00 0°C° 0 mm 3 mps 757 mmHg 82%
01:00 0°C° 0 mm 3 mps 757 mmHg 82%
02:00 -1°C° 0 mm 3 mps 756 mmHg 81%
03:00 -2°C° 0 mm 4 mps 756 mmHg 80%
04:00 -2°C° 0 mm 4 mps 755 mmHg 78%
05:00 -2°C° 0 mm 4 mps 755 mmHg 77%
06:00 -1°C° 0 mm 5 mps 754 mmHg 75%
07:00 0°C° 0 mm 5 mps 754 mmHg 72%
08:00 -1°C° 0 mm 6 mps 753 mmHg 70%
09:00 +2°C° 0 mm 6 mps 753 mmHg 66%
10:00 +4°C° 0 mm 6 mps 752 mmHg 63%
11:00 +5°C° 0 mm 7 mps 751 mmHg 59%
12:00 +6°C° 0 mm 7 mps 751 mmHg 57%
13:00 +8°C° 0 mm 7 mps 750 mmHg 55%
14:00 +9°C° 0 mm 8 mps 749 mmHg 53%
15:00 +9°C° 0 mm 7 mps 749 mmHg 56%
16:00 +8°C° 0 mm 7 mps 748 mmHg 59%
17:00 +8°C° 0 mm 6 mps 747 mmHg 63%
18:00 +7°C° 0 mm 6 mps 747 mmHg 67%
19:00 +5°C° 0 mm 6 mps 747 mmHg 72%
20:00 +4°C° 0 mm 6 mps 747 mmHg 76%
21:00 +4°C° 0 mm 6 mps 747 mmHg 78%
22:00 +3°C° 0 mm 5 mps 747 mmHg 80%
23:00 +3°C° 0 mm 5 mps 747 mmHg 82%

5 March, Friday

Time Temperature Precipitation Wind Pressure Humidity
00:00 +3°C° 0 mm 5 mps 747 mmHg 81%
01:00 +4°C° 0 mm 4 mps 747 mmHg 81%
02:00 +3°C° 0 mm 4 mps 747 mmHg 81%
03:00 +3°C° 0 mm 4 mps 747 mmHg 82%
04:00 +3°C° 0 mm 3 mps 747 mmHg 83%
05:00 +3°C° 0 mm 3 mps 747 mmHg 84%
06:00 +3°C° 0.1 mm 3 mps 747 mmHg 83%
07:00 +3°C° 0.1 mm 3 mps 747 mmHg 83%
08:00 +4°C° 0.1 mm 2 mps 747 mmHg 82%
09:00 +4°C° 0.2 mm 3 mps 747 mmHg 79%
10:00 +5°C° 0.2 mm 3 mps 747 mmHg 76%
11:00 +7°C° 0.2 mm 3 mps 746 mmHg 73%
12:00 +8°C° 0 mm 3 mps 746 mmHg 70%
13:00 +9°C° 0 mm 3 mps 746 mmHg 67%
14:00 +9°C° 0 mm 3 mps 746 mmHg 65%
15:00 +8°C° 0 mm 3 mps 746 mmHg 73%
16:00 +6°C° 0 mm 4 mps 746 mmHg 80%
17:00 +4°C° 0 mm 4 mps 746 mmHg 88%
18:00 +3°C° 0 mm 4 mps 746 mmHg 90%
19:00 +1°C° 0 mm 4 mps 746 mmHg 92%
20:00 0°C° 0 mm 4 mps 747 mmHg 94%
21:00 0°C° 0.1 mm 5 mps 747 mmHg 95%
22:00 -1°C° 0.1 mm 5 mps 748 mmHg 95%
23:00 -2°C° 0.1 mm 6 mps 748 mmHg 95%

6 March, Saturday

Time Temperature Precipitation Wind Pressure Humidity
00:00 -1°C° 0.1 mm 5 mps 749 mmHg 93%
01:00 -2°C° 0.1 mm 5 mps 749 mmHg 92%
02:00 -2°C° 0.1 mm 4 mps 750 mmHg 90%
03:00 -2°C° 0 mm 5 mps 750 mmHg 87%
04:00 -4°C° 0 mm 5 mps 750 mmHg 83%
05:00 -4°C° 0 mm 5 mps 751 mmHg 79%
06:00 -4°C° 0 mm 5 mps 751 mmHg 76%
07:00 -4°C° 0 mm 5 mps 752 mmHg 73%
08:00 -4°C° 0 mm 5 mps 752 mmHg 69%
09:00 -3°C° 0 mm 6 mps 753 mmHg 63%
10:00 -3°C° 0 mm 6 mps 753 mmHg 57%
11:00 -2°C° 0 mm 7 mps 753 mmHg 51%
12:00 -2°C° 0 mm 7 mps 753 mmHg 48%
13:00 -2°C° 0 mm 7 mps 753 mmHg 44%
14:00 -2°C° 0 mm 7 mps 754 mmHg 41%
15:00 -3°C° 0 mm 7 mps 754 mmHg 42%
16:00 -3°C° 0 mm 6 mps 754 mmHg 44%
17:00 -3°C° 0 mm 6 mps 754 mmHg 45%
18:00 -4°C° 0 mm 5 mps 755 mmHg 49%
19:00 -3°C° 0 mm 4 mps 755 mmHg 52%
20:00 -4°C° 0 mm 3 mps 756 mmHg 56%
21:00 -4°C° 0 mm 3 mps 756 mmHg 56%
22:00 -4°C° 0 mm 3 mps 756 mmHg 55%
23:00 -4°C° 0 mm 3 mps 756 mmHg 55%

7 March, Sunday

Time Temperature Precipitation Wind Pressure Humidity
00:00 -4°C° 0 mm 3 mps 756 mmHg 58%
01:00 -4°C° 0 mm 4 mps 756 mmHg 61%
02:00 -4°C° 0 mm 4 mps 756 mmHg 64%
03:00 -4°C° 0 mm 4 mps 756 mmHg 64%
04:00 -5°C° 0 mm 4 mps 756 mmHg 64%
05:00 -5°C° 0 mm 3 mps 756 mmHg 65%
06:00 -4°C° 0 mm 4 mps 756 mmHg 60%
07:00 -4°C° 0 mm 5 mps 755 mmHg 55%
08:00 -4°C° 0 mm 6 mps 755 mmHg 51%
09:00 -3°C° 0 mm 6 mps 755 mmHg 47%
10:00 -2°C° 0 mm 7 mps 754 mmHg 44%
11:00 -1°C° 0 mm 7 mps 754 mmHg 41%
12:00 0°C° 0 mm 8 mps 753 mmHg 41%
13:00 0°C° 0 mm 8 mps 753 mmHg 40%
14:00 +1°C° 0 mm 8 mps 752 mmHg 40%
15:00 0°C° 0 mm 8 mps 751 mmHg 43%
16:00 0°C° 0 mm 7 mps 751 mmHg 47%
17:00 -1°C° 0 mm 7 mps 750 mmHg 50%
18:00 -2°C° 0 mm 7 mps 750 mmHg 53%
19:00 -2°C° 0 mm 7 mps 750 mmHg 55%
20:00 -3°C° 0 mm 7 mps 750 mmHg 58%
21:00 -3°C° 0 mm 7 mps 749 mmHg 58%
22:00 -3°C° 0 mm 7 mps 749 mmHg 58%
23:00 -3°C° 0 mm 7 mps 749 mmHg 58%
Show more

We Need Your Consent

Meteoprog and our Service Providers may store and access personal data such as cookies, device identifiers or other similar technologies on your device and process such data to personalise content and ads, as well as provide social media features and to analyse the traffic.

  • Store and/or access information on your device

    Cookies, device identifiers or other information can be stored or accessed on your device for the purposes indicated above.

  • Personalised ads and content, ad and content measurement, audience insights, and products development

    Ads and content can be personalised based on a profile. More data can be added to better personalise ads and content. Ad and content performance can be measured. Insights about the audience who saw the ads and content can be derived. Such data can be used to develop or improve user’s experience, systems and software.

By clicking ‘I Agree’ you will allow the use of indicated cookies, device identifiers, web beacons or other similar technologies. Your settings can be changed in the browser on your device.

For certain purposes, legitimate interests may be relied on, rather than consent. You can read more about this in our Privacy and Cookie Policy.